Location: Newark
(44.3248°N, 23.7839°E)
Time: 23:13:34
(UTC+00:00)

PCSat - Pass Details

Date: 21 April 2024
Orbit: 783 x 792 km, 67.1° (Epoch: 21 May)

Event Time Altitude Azimuth Distance (km) Brightness Sun altitude
Rises 19:41:17 0° 265° (W) 3,278 13.3 -22.5°
Reaches altitude 10° 19:44:39 10° 286° (WNW) 2,355 12.8 -22.9°
Maximum altitude 19:47:57 16° 324° (NW) 1,962 12.5 -23.3°
Drops below altitude 10° 19:51:16 10° 2° (N) 2,365 12.6 -23.7°
Sets 19:54:41 0° 24° (NNE) 3,299 13.1 -24.1°
